This is the latest recevied weather packets stored in our database for station/object KD7AWQ. If no packets are shown the sender has not sent any weather packets the latest 10 day(s).
| Time | Temp. | Humidity | Pressure | Rain* | Wind** | Luminosity | Snow |
|---|---|---|---|---|---|---|---|
| 1777952626 | 13.33° C | 77% | 1183.9 hPa | 0 mm | - | 0 W/m² | - |
| 1777952323 | 13.33° C | 78% | 1184.1 hPa | 0 mm | - | 0 W/m² | - |
| 1777952019 | 13.33° C | 76% | 1184.3 hPa | 0 mm | - | 0 W/m² | - |
| 1777951718 | 12.78° C | 77% | 1184.1 hPa | 1.27 mm | - | 0 W/m² | - |
| 1777951414 | 12.78° C | 79% | 1184.3 hPa | 1.27 mm | - | 0 W/m² | - |
| 1777951111 | 12.78° C | 78% | 1183.9 hPa | 0 mm | - | 0 W/m² | - |
| 1777950807 | 12.78° C | 79% | 1183.9 hPa | 0 mm | - | 0 W/m² | - |
| 1777950505 | 12.78° C | 78% | 1183.9 hPa | 0 mm | - | 0 W/m² | - |
| 1777950201 | 12.78° C | 79% | 1183.8 hPa | 0 mm | - | 0 W/m² | - |
| 1777949896 | 12.78° C | 77% | 1183.6 hPa | 0 mm | - | 0 W/m² | - |
| 1777949595 | 12.78° C | 76% | 1183.7 hPa | 0 mm | - | 0 W/m² | - |
| 1777949293 | 13.33° C | 73% | 1183.8 hPa | 1.78 mm | - | 0 W/m² | - |
| 1777948990 | 13.33° C | 70% | 1183.5 hPa | 1.78 mm | - | 0 W/m² | - |
| 1777948687 | 13.89° C | 70% | 1183.7 hPa | 0 mm | - | 0 W/m² | - |
| 1777948384 | 13.89° C | 67% | 1183.9 hPa | 0 mm | - | 0 W/m² | - |
| 1777948081 | 14.44° C | 63% | 1183.6 hPa | 0 mm | - | 0 W/m² | - |
| 1777947778 | 14.44° C | 62% | 1183.7 hPa | 0 mm | - | 0 W/m² | - |
| 1777947475 | 14.44° C | 59% | 1183.5 hPa | 0 mm | - | 0 W/m² | - |
| 1777947172 | 15° C | 57% | 1183 hPa | 0 mm | - | 1 W/m² | - |
| 1777946868 | 15.56° C | 52% | 1183.1 hPa | 0 mm | - | 1 W/m² | - |
| 1777946563 | 16.11° C | 49% | 1183.1 hPa | 0 mm | - | 2 W/m² | - |
| 1777946260 | 16.11° C | 45% | 1182.7 hPa | 0 mm | - | 3 W/m² | - |
| 1777945957 | 16.11° C | 44% | 1182.8 hPa | 0 mm | - | 4 W/m² | - |
| 1777945654 | 16.11° C | 44% | 1182.7 hPa | 0 mm | - | 4 W/m² | - |
| 1777945352 | 16.67° C | 43% | 1182.6 hPa | 0 mm | - | 6 W/m² | - |
* Rain latest hour (hover to see other rain measurements)
** Current wind speed in m/s (hover to see current wind gust speed)